TimeEST,TemperatureF,Dew PointF,Humidity,Sea Level PressureIn,VisibilityMPH,Wind Direction,Wind SpeedMPH,Gust SpeedMPH,PrecipitationIn,Events,Conditions,WindDirDegrees,DateUTC
12:54 AM,30.0,18.0,61,30.44,10.0,SSW,3.5,-,N/A,,Clear,210,2013-01-19 05:54:00
1:54 AM,32.0,19.0,59,30.43,10.0,Variable,3.5,-,N/A,,Clear,0,2013-01-19 06:54:00
2:54 AM,33.1,21.0,61,30.42,10.0,Variable,5.8,-,N/A,,Clear,0,2013-01-19 07:54:00
3:54 AM,34.0,23.0,64,30.40,10.0,SSW,6.9,-,N/A,,Clear,200,2013-01-19 08:54:00
4:54 AM,33.1,25.0,72,30.39,10.0,SSW,5.8,-,N/A,,Clear,200,2013-01-19 09:54:00
5:54 AM,34.0,26.1,73,30.39,10.0,Variable,6.9,-,N/A,,Clear,0,2013-01-19 10:54:00
6:54 AM,34.0,27.0,75,30.38,10.0,SSW,9.2,-,N/A,,Clear,200,2013-01-19 11:54:00
7:54 AM,35.1,28.0,76,30.37,10.0,Variable,6.9,-,N/A,,Clear,0,2013-01-19 12:54:00
9:54 AM,39.9,28.0,63,30.37,10.0,SSW,8.1,-,N/A,,Clear,210,2013-01-19 14:54:00
10:54 AM,42.1,27.0,55,30.34,10.0,SW,9.2,-,N/A,,Clear,220,2013-01-19 15:54:00
11:54 AM,46.0,24.1,42,30.27,10.0,SW,11.5,16.1,N/A,,Clear,220,2013-01-19 16:54:00
12:54 PM,50.0,24.1,36,30.24,10.0,SW,9.2,-,N/A,,Clear,230,2013-01-19 17:54:00
1:54 PM,51.1,26.1,38,30.20,10.0,SW,9.2,17.3,N/A,,Clear,230,2013-01-19 18:54:00
2:54 PM,51.1,27.0,39,30.17,10.0,SSW,9.2,18.4,N/A,,Clear,210,2013-01-19 19:54:00
3:54 PM,50.0,27.0,41,30.15,10.0,Variable,6.9,-,N/A,,Clear,0,2013-01-19 20:54:00
4:54 PM,46.9,26.1,44,30.13,10.0,Variable,4.6,-,N/A,,Clear,0,2013-01-19 21:54:00
5:54 PM,43.0,27.0,53,30.12,10.0,Calm,Calm,-,N/A,,Clear,0,2013-01-19 22:54:00
6:54 PM,43.0,28.0,56,30.12,10.0,SSW,4.6,-,N/A,,Clear,200,2013-01-19 23:54:00
7:54 PM,41.0,28.9,62,30.10,10.0,SSW,3.5,-,N/A,,Clear,210,2013-01-20 00:54:00
8:54 PM,41.0,27.0,57,30.08,10.0,Variable,4.6,-,N/A,,Clear,0,2013-01-20 01:54:00
9:54 PM,41.0,28.0,60,30.06,10.0,SSW,5.8,-,N/A,,Clear,200,2013-01-20 02:54:00
10:54 PM,41.0,28.9,62,30.03,10.0,SSW,6.9,-,N/A,,Clear,210,2013-01-20 03:54:00
11:54 PM,43.0,28.0,56,30.00,10.0,Variable,4.6,-,N/A,,Clear,0,2013-01-20 04:54:00